Weather History for KDIK - November, 2012

Change the Weather History Date:

Saturday, November 17, 2012

  Actual Average Record
Temperature  
Mean Temperature 44 °F 29 °F  
Max Temperature 58 °F 39 °F 67 °F (2001)
Min Temperature 30 °F 18 °F -9 °F (1911)
Degree Days  
Heating Degree Days 21 36  
Month to date heating degree days 532 548  
Since 1 July heating degree days 1469 1559  
Cooling Degree Days 0 0  
Month to date cooling degree days 0 0  
Year to date cooling degree days 591 419  
Moisture  
Dew Point 29 °F    
Average Humidity 60    
Maximum Humidity 85    
Minimum Humidity 35    
Precipitation  
Precipitation 0.00 in 0.01 in 0.53 in (1994)
Month to date precipitation 0.22 0.38  
Year to date precipitation 10.15 15.37  
Sea Level Pressure  
Sea Level Pressure 30.00 in    
Wind  
Wind Speed 5 mph (ESE)    
Max Wind Speed 13 mph    
Max Gust Speed 15 mph    
Visibility 10 miles    
Events      
T = Trace of Precipitation, MM = Missing Value Source: NWS Daily Summary

Daily Weather History Graph

Daily Weather History Graph

Search for Another Location

Airport or City:

Trip Planner

Search our weather history database for the weather conditions in past years. The results will help you decide how hot, cold, wet, or windy it might be!

Date:

Astronomy

Nov. 17, 2012 Rise Set
Actual Time 6:57 AM MST 4:14 PM MST
Civil Twilight 6:24 AM MST 4:47 PM MST
Nautical Twilight 5:47 AM MST 5:24 PM MST
Astronomical Twilight 5:11 AM MST 6:00 PM MST
Moon 10:44 AM MST (11/17) 8:28 PM MST (11/17)
Length of Visible Light 10h 23m
Length of Day
9h 16m
Waxing Crescent, 21% of the Moon is Illuminated
Nov 17
Waxing Crescent
Nov 20
First Quarter
Nov 28
Full
Dec 6
Last Quarter
Dec 13
New

Hourly Weather History & Observations

Time (MST) Temp. Windchill Dew Point Humidity Pressure Visibility Wind Dir Wind Speed Gust Speed Precip Events Conditions
12:56 AM 34.0 °F 31.0 °F 28.0 °F 79% 29.97 in 10.0 mi NNE 3.5 mph - N/A   Clear
1:56 AM 32.0 °F - 28.0 °F 85% 29.99 in 10.0 mi Calm Calm - N/A   Partly Cloudy
2:56 AM 33.1 °F 30.0 °F 28.0 °F 82% 30.00 in 10.0 mi South 3.5 mph - N/A   Overcast
3:56 AM 33.1 °F 28.7 °F 28.0 °F 82% 30.01 in 10.0 mi North 4.6 mph - N/A   Mostly Cloudy
4:56 AM 32.0 °F 28.7 °F 28.0 °F 85% 30.04 in 10.0 mi SSW 3.5 mph - N/A   Overcast
5:56 AM 34.0 °F - 28.9 °F 82% 30.04 in 10.0 mi Calm Calm - N/A   Overcast
6:56 AM 33.1 °F 27.7 °F 28.0 °F 82% 30.05 in 10.0 mi NW 5.8 mph - N/A   Mostly Cloudy
7:56 AM 35.1 °F 32.2 °F 28.9 °F 78% 30.05 in 10.0 mi NNW 3.5 mph - N/A   Mostly Cloudy
8:56 AM 42.1 °F 38.4 °F 30.0 °F 62% 30.04 in 10.0 mi ENE 5.8 mph - N/A   Overcast
9:56 AM 48.0 °F - 30.9 °F 52% 30.03 in 10.0 mi SSE 11.5 mph - N/A   Overcast
10:56 AM 54.0 °F - 28.0 °F 37% 30.00 in 10.0 mi SSE 9.2 mph - N/A   Clear
11:56 AM 55.9 °F - 28.9 °F 36% 30.00 in 10.0 mi Calm Calm - N/A   Clear
12:56 PM 55.0 °F - 30.9 °F 40% 29.99 in 10.0 mi NW 6.9 mph - N/A   Clear
1:56 PM 55.9 °F - 30.0 °F 37% 29.99 in 10.0 mi NNW 3.5 mph - N/A   Clear
2:56 PM 55.9 °F - 30.9 °F 39% 29.99 in 10.0 mi NNW 5.8 mph - N/A   Clear
3:56 PM 48.0 °F - 32.0 °F 54% 30.00 in 10.0 mi North 3.5 mph - N/A   Clear
4:56 PM 44.1 °F 41.5 °F 32.0 °F 63% 30.01 in 10.0 mi NE 4.6 mph - N/A   Clear
5:56 PM 37.0 °F 33.3 °F 30.0 °F 76% 30.01 in 10.0 mi ESE 4.6 mph - N/A   Clear
6:56 PM 34.0 °F 29.8 °F 27.0 °F 75% 30.01 in 10.0 mi SE 4.6 mph - N/A   Clear
7:56 PM 33.1 °F 26.1 °F 27.0 °F 78% 30.00 in 10.0 mi South 8.1 mph - N/A   Clear
8:56 PM 30.9 °F 25.2 °F 25.0 °F 79% 29.99 in 10.0 mi ESE 5.8 mph - N/A   Clear
9:56 PM 32.0 °F 24.2 °F 26.1 °F 79% 29.97 in 10.0 mi SSE 9.2 mph - N/A   Clear
10:56 PM 32.0 °F 24.8 °F 26.1 °F 79% 29.95 in 10.0 mi South 8.1 mph - N/A   Clear
11:56 PM 33.1 °F 24.4 °F 26.1 °F 75% 29.93 in 10.0 mi South 11.5 mph - N/A   Clear